• In Hungary
  • List of Countries
  • For 7 days
  • Water Temperature
  • Satellite Maps
  • Weather Map
  • News
  • Weather Widgets
  • user-avatar
    Login

    Hourly Weather Komovi

    Today, 20 October, Saturday

    Time Temperature Precipitation Wind Pressure Humidity
    00:00 +12°C° 0 mm 2 mps 687 mmHg 80%
    01:00 +12°C° 0 mm 2 mps 687 mmHg 82%
    02:00 +12°C° 0 mm 2 mps 687 mmHg 82%
    03:00 +12°C° 0 mm 2 mps 687 mmHg 82%
    04:00 +12°C° 0 mm 2 mps 687 mmHg 82%
    05:00 +12°C° 0 mm 2 mps 688 mmHg 81%
    06:00 +12°C° 0 mm 2 mps 688 mmHg 81%
    07:00 +11°C° 0 mm 3 mps 688 mmHg 80%
    08:00 +13°C° 0 mm 2 mps 688 mmHg 72%
    09:00 +15°C° 0 mm 2 mps 689 mmHg 63%
    10:00 +17°C° 0 mm 2 mps 689 mmHg 55%
    11:00 +17°C° 0 mm 2 mps 689 mmHg 51%
    12:00 +18°C° 0 mm 2 mps 689 mmHg 47%
    13:00 +19°C° 0 mm 2 mps 689 mmHg 44%
    14:00 +18°C° 0 mm 2 mps 689 mmHg 48%
    15:00 +17°C° 0 mm 2 mps 689 mmHg 52%
    16:00 +16°C° 0 mm 2 mps 688 mmHg 56%
    17:00 +14°C° 0 mm 3 mps 688 mmHg 60%
    18:00 +12°C° 0 mm 3 mps 688 mmHg 65%
    19:00 +10°C° 0 mm 3 mps 688 mmHg 70%
    20:00 +10°C° 0 mm 3 mps 688 mmHg 72%
    21:00 +9°C° 0 mm 3 mps 688 mmHg 74%
    22:00 +9°C° 0 mm 3 mps 688 mmHg 76%
    23:00 +9°C° 0 mm 3 mps 688 mmHg 77%

    Tomorrow, 21 October, Sunday

    Time Temperature Precipitation Wind Pressure Humidity
    00:00 +8°C° 0 mm 3 mps 688 mmHg 78%
    01:00 +8°C° 0 mm 3 mps 688 mmHg 79%
    02:00 +8°C° 0 mm 3 mps 687 mmHg 79%
    03:00 +8°C° 0 mm 3 mps 687 mmHg 80%
    04:00 +8°C° 0 mm 3 mps 687 mmHg 80%
    05:00 +8°C° 0 mm 3 mps 687 mmHg 80%
    06:00 +8°C° 0 mm 3 mps 687 mmHg 79%
    07:00 +8°C° 0 mm 3 mps 687 mmHg 78%
    08:00 +10°C° 0 mm 3 mps 687 mmHg 71%
    09:00 +12°C° 0 mm 3 mps 687 mmHg 63%
    10:00 +14°C° 0 mm 2 mps 687 mmHg 55%
    11:00 +14°C° 0 mm 2 mps 687 mmHg 54%
    12:00 +15°C° 0 mm 2 mps 687 mmHg 52%
    13:00 +15°C° 0 mm 2 mps 687 mmHg 51%
    14:00 +14°C° 0.2 mm 2 mps 687 mmHg 56%
    15:00 +13°C° 0.2 mm 2 mps 686 mmHg 61%
    16:00 +12°C° 0.2 mm 2 mps 686 mmHg 66%
    17:00 +10°C° 0.2 mm 3 mps 686 mmHg 69%
    18:00 +9°C° 0.2 mm 3 mps 686 mmHg 72%
    19:00 +9°C° 0.2 mm 3 mps 686 mmHg 76%
    20:00 +8°C° 0.1 mm 3 mps 686 mmHg 77%
    21:00 +8°C° 0.1 mm 3 mps 686 mmHg 77%
    22:00 +8°C° 0.1 mm 3 mps 687 mmHg 78%
    23:00 +6°C° 0 mm 4 mps 686 mmHg 78%

    Day after tomorrow, 22 October, Monday

    Time Temperature Precipitation Wind Pressure Humidity
    00:00 +6°C° 0 mm 4 mps 686 mmHg 79%
    01:00 +5°C° 0 mm 4 mps 686 mmHg 80%
    02:00 +5°C° 0 mm 4 mps 686 mmHg 79%
    03:00 +5°C° 0 mm 4 mps 686 mmHg 78%
    04:00 +5°C° 0 mm 4 mps 685 mmHg 78%
    05:00 +5°C° 0.1 mm 4 mps 685 mmHg 77%
    06:00 +5°C° 0.1 mm 4 mps 685 mmHg 76%
    07:00 +5°C° 0.1 mm 4 mps 685 mmHg 75%
    08:00 +7°C° 0 mm 4 mps 686 mmHg 69%
    09:00 +10°C° 0 mm 4 mps 686 mmHg 63%
    10:00 +12°C° 0 mm 4 mps 686 mmHg 57%
    11:00 +12°C° 0.1 mm 3 mps 686 mmHg 56%
    12:00 +13°C° 0.1 mm 3 mps 685 mmHg 54%
    13:00 +13°C° 0.1 mm 3 mps 685 mmHg 53%
    14:00 +13°C° 0.2 mm 3 mps 685 mmHg 58%
    15:00 +12°C° 0.2 mm 3 mps 685 mmHg 64%
    16:00 +11°C° 0.2 mm 3 mps 685 mmHg 69%
    17:00 +10°C° 0.2 mm 3 mps 685 mmHg 72%
    18:00 +10°C° 0.2 mm 3 mps 685 mmHg 75%
    19:00 +9°C° 0.2 mm 3 mps 685 mmHg 77%
    20:00 +9°C° 0 mm 3 mps 685 mmHg 78%
    21:00 +8°C° 0 mm 3 mps 685 mmHg 79%
    22:00 +8°C° 0 mm 3 mps 686 mmHg 80%
    23:00 +8°C° 0 mm 3 mps 685 mmHg 81%

    23 October, Tuesday

    Time Temperature Precipitation Wind Pressure Humidity
    00:00 +7°C° 0 mm 4 mps 685 mmHg 82%
    01:00 +6°C° 0 mm 4 mps 685 mmHg 82%
    02:00 +7°C° 0 mm 4 mps 685 mmHg 82%
    03:00 +7°C° 0 mm 4 mps 685 mmHg 83%
    04:00 +7°C° 0 mm 4 mps 684 mmHg 83%
    05:00 +7°C° 0 mm 4 mps 684 mmHg 82%
    06:00 +7°C° 0 mm 4 mps 685 mmHg 81%
    07:00 +7°C° 0 mm 4 mps 685 mmHg 80%
    08:00 +10°C° 0 mm 4 mps 685 mmHg 73%
    09:00 +12°C° 0 mm 4 mps 686 mmHg 67%
    10:00 +13°C° 0 mm 4 mps 686 mmHg 61%
    11:00 +14°C° 0 mm 4 mps 686 mmHg 59%
    12:00 +14°C° 0 mm 4 mps 686 mmHg 58%
    13:00 +14°C° 0 mm 3 mps 686 mmHg 56%
    14:00 +14°C° 0 mm 3 mps 686 mmHg 59%
    15:00 +13°C° 0 mm 3 mps 685 mmHg 62%
    16:00 +13°C° 0 mm 2 mps 685 mmHg 65%
    17:00 +11°C° 0 mm 3 mps 685 mmHg 70%
    18:00 +10°C° 0 mm 3 mps 685 mmHg 74%
    19:00 +8°C° 0 mm 3 mps 685 mmHg 79%
    20:00 +8°C° 0 mm 3 mps 685 mmHg 79%
    21:00 +8°C° 0 mm 3 mps 685 mmHg 80%
    22:00 +8°C° 0 mm 3 mps 685 mmHg 80%
    23:00 +7°C° 0 mm 3 mps 685 mmHg 81%

    24 October, Wednesday

    Time Temperature Precipitation Wind Pressure Humidity
    00:00 +7°C° 0 mm 3 mps 685 mmHg 81%
    01:00 +7°C° 0 mm 3 mps 684 mmHg 82%
    02:00 +5°C° 0 mm 3 mps 684 mmHg 82%
    03:00 +5°C° 0 mm 3 mps 684 mmHg 81%
    04:00 +5°C° 0 mm 3 mps 683 mmHg 81%
    05:00 +5°C° 0 mm 3 mps 683 mmHg 79%
    06:00 +5°C° 0 mm 3 mps 683 mmHg 77%
    07:00 +5°C° 0 mm 3 mps 683 mmHg 74%
    08:00 +8°C° 0 mm 3 mps 683 mmHg 65%
    09:00 +11°C° 0 mm 3 mps 684 mmHg 55%
    10:00 +15°C° 0 mm 2 mps 684 mmHg 45%
    11:00 +14°C° 0 mm 3 mps 684 mmHg 45%
    12:00 +15°C° 0 mm 4 mps 683 mmHg 45%
    13:00 +16°C° 0 mm 5 mps 683 mmHg 46%
    14:00 +15°C° 0 mm 4 mps 683 mmHg 49%
    15:00 +14°C° 0 mm 4 mps 683 mmHg 53%
    16:00 +13°C° 0 mm 4 mps 683 mmHg 56%
    17:00 +12°C° 0 mm 3 mps 683 mmHg 60%
    18:00 +10°C° 0 mm 3 mps 683 mmHg 65%
    19:00 +9°C° 0 mm 3 mps 683 mmHg 69%
    20:00 +9°C° 0 mm 3 mps 683 mmHg 70%
    21:00 +9°C° 0 mm 3 mps 683 mmHg 71%
    22:00 +9°C° 0 mm 3 mps 683 mmHg 72%
    23:00 +9°C° 0 mm 3 mps 683 mmHg 74%

    25 October, Thursday

    Time Temperature Precipitation Wind Pressure Humidity
    00:00 +9°C° 0 mm 3 mps 684 mmHg 76%
    01:00 +9°C° 0 mm 3 mps 684 mmHg 77%
    02:00 +8°C° 0 mm 3 mps 684 mmHg 77%
    03:00 +8°C° 0 mm 3 mps 684 mmHg 78%
    04:00 +8°C° 0 mm 3 mps 684 mmHg 78%
    05:00 +8°C° 0 mm 3 mps 685 mmHg 77%
    06:00 +8°C° 0 mm 3 mps 685 mmHg 76%
    07:00 +8°C° 0 mm 3 mps 686 mmHg 76%
    08:00 +8°C° 0 mm 4 mps 686 mmHg 69%
    09:00 +10°C° 0 mm 4 mps 687 mmHg 62%
    10:00 +10°C° 0 mm 5 mps 687 mmHg 55%
    11:00 +12°C° 0 mm 5 mps 687 mmHg 53%
    12:00 +12°C° 0 mm 4 mps 687 mmHg 52%
    13:00 +13°C° 0 mm 4 mps 687 mmHg 51%
    14:00 +12°C° 0 mm 4 mps 687 mmHg 54%
    15:00 +12°C° 0 mm 3 mps 687 mmHg 56%
    16:00 +12°C° 0 mm 2 mps 687 mmHg 59%
    17:00 +10°C° 0 mm 2 mps 687 mmHg 64%
    18:00 +8°C° 0 mm 2 mps 687 mmHg 69%
    19:00 +7°C° 0 mm 2 mps 687 mmHg 74%
    20:00 +7°C° 0 mm 2 mps 687 mmHg 74%
    21:00 +7°C° 0 mm 2 mps 687 mmHg 75%
    22:00 +6°C° 0 mm 2 mps 687 mmHg 75%
    23:00 +6°C° 0 mm 2 mps 687 mmHg 74%
    Show more